This demonstration page uses our WeatherBlox Daily Observations layout. Learn more.

Left ArrowRight Arrow

53.62937, 11.41316

Hourly Observations for November 20, 2018

Temp ( °F °C ) Dew Point ( °F °C ) Humidity (%) Winds ( mph kmh ) Pressure ( in mb ) Visibility ( mi km ) Precip ( " mm )
6:50 am 06:50 Mostly Cloudy 37 3 28 -2 70 70 E 15 24 30.15 1021 30 48 N/A
7:20 am 07:20 Mostly Cloudy 37 3 28 -2 70 70 E 17 28 30.15 1021 30 48 N/A
7:50 am 07:50 Mostly Cloudy 37 3 30 -1 75 75 E 14 22 30.15 1021 30 48 N/A
8:20 am 08:20 Mostly Cloudy 37 3 30 -1 75 75 E 14 22 30.15 1021 30 48 N/A
8:50 am 08:50 Mostly Cloudy 37 3 28 -2 70 70 E 15 24 30.15 1021 30 48 N/A
9:20 am 09:20 Mostly Cloudy 37 3 30 -1 75 75 E 15 24 30.15 1021 30 48 N/A
9:50 am 09:50 Mostly Cloudy 37 3 30 -1 75 75 E 14 22 30.15 1021 30 48 N/A
10:20 am 10:20 Mostly Cloudy 39 4 30 -1 70 70 E 15 24 30.15 1021 30 48 N/A
10:50 am 10:50 Mostly Cloudy 39 4 30 -1 70 70 E 14 22 30.12 1020 30 48 N/A
11:20 am 11:20 Mostly Cloudy 39 4 30 -1 70 70 E 15 24 30.12 1020 30 48 N/A
11:50 am 11:50 Mostly Cloudy 39 4 30 -1 70 70 E 14 22 30.12 1020 30 48 N/A
12:20 pm 12:20 Mostly Cloudy 39 4 30 -1 70 70 E 14 22 30.09 1019 30 48 N/A
12:50 pm 12:50 Mostly Cloudy 39 4 30 -1 70 70 E 15 24 30.09 1019 30 48 N/A
1:20 pm 13:20 Mostly Cloudy 39 4 30 -1 70 70 E 21 33 30.09 1019 30 48 N/A
1:50 pm 13:50 Mostly Cloudy 39 4 30 -1 70 70 E 13 20 30.09 1019 30 48 N/A
2:20 pm 14:20 Mostly Cloudy 37 3 30 -1 75 75 E 21 33 30.06 1018 30 48 N/A
2:50 pm 14:50 Mostly Cloudy 37 3 30 -1 75 75 E 15 24 30.06 1018 30 48 N/A
3:20 pm 15:20 Mostly Cloudy 37 3 30 -1 75 75 E 14 22 30.06 1018 30 48 N/A
3:50 pm 15:50 Mostly Cloudy 37 3 30 -1 75 75 E 13 20 30.06 1018 30 48 N/A
4:20 pm 16:20 Mostly Cloudy 37 3 30 -1 75 75 E 12 19 30.03 1017 30 48 N/A
4:50 pm 16:50 Mostly Cloudy 37 3 30 -1 75 75 E 13 20 30.03 1017 30 48 N/A
5:20 pm 17:20 Mostly Cloudy 37 3 30 -1 75 75 E 12 19 30.03 1017 30 48 N/A
5:50 pm 17:50 Mostly Cloudy 37 3 30 -1 75 75 E 10 17 30.06 1018 30 48 N/A
6:20 pm 18:20 Mostly Cloudy 37 3 30 -1 75 75 E 21 33 30.06 1018 30 48 N/A
6:50 pm 18:50 Mostly Cloudy 37 3 28 -2 70 70 E 13 20 30.06 1018 30 48 N/A

Powered by AerisWeather